Theta_e
288 288 289 289 289 289 289 289 289 288 287 287 287 287 287 287 287 287 287 287 287 287 287 287 287 286 286 286 284 283 283 283 283 282 282 282 282 282 282 282 282 283 282 280 279 279 278 278 278 277 277 278 278 277 277 277 277 277 277 277 277 277 277
288 288 288 288 289 289 289 289 289 288 288 287 287 287 287 287 287 287 287 287 287 287 286 286 286 286 286 285 284 283 283 283 282 282 281 281 281 281 281 281 281 282 282 280 278 278 278 277 277 277 277 277 277 277 277 277 277 277 277 277 277 277 277
287 287 288 288 288 289 289 289 289 288 288 287 287 287 286 286 286 286 287 287 287 287 286 286 285 285 285 285 284 283 283 282 282 281 281 280 280 280 280 280 280 281 281 281 279 278 277 277 277 277 277 277 277 277 277 277 277 277 277 277 277 277 277
287 287 287 287 288 288 288 288 289 288 288 288 287 287 287 286 286 286 286 287 286 286 286 285 285 285 285 284 284 283 282 282 281 281 280 280 280 279 279 279 280 280 280 280 280 278 278 277 277 277 277 277 277 277 277 277 277 277 277 277 277 277 277
287 287 287 287 287 288 288 288 288 288 288 288 288 287 287 287 286 286 286 286 286 286 286 285 285 284 284 284 283 283 282 281 281 280 280 280 279 279 279 279 279 279 279 279 279 279 278 277 277 277 276 276 276 276 277 277 277 277 277 277 277 277 277
287 287 287 287 287 287 287 288 288 288 288 288 288 288 287 287 286 286 286 286 286 286 285 285 285 284 284 284 283 283 282 281 281 280 280 279 279 279 279 279 278 278 278 279 279 279 279 278 277 277 276 276 276 276 276 277 277 277 277 277 277 277 277
286 286 286 287 287 287 287 287 287 288 288 288 288 288 287 287 286 286 286 286 285 285 285 285 284 284 284 284 283 282 282 281 280 280 279 279 279 279 279 278 278 278 278 278 279 279 279 278 277 277 276 276 276 276 276 277 277 277 277 277 277 277 277
287 286 286 286 286 286 287 287 287 288 288 288 288 288 287 287 286 286 286 286 285 285 285 284 284 284 284 283 283 282 282 281 280 280 279 279 279 279 278 278 278 278 278 278 278 278 278 278 278 277 277 276 276 276 276 277 277 277 278 278 277 277 277
287 287 287 286 286 287 287 287 287 288 288 288 288 288 287 287 286 286 286 286 285 285 285 284 284 283 283 283 283 282 282 281 280 280 279 279 279 278 278 278 278 278 278 278 278 278 278 278 278 277 277 277 277 277 277 277 277 277 277 277 277 277 277
287 287 287 287 287 287 287 287 287 287 287 288 287 287 287 287 287 286 286 286 285 285 285 284 284 283 283 283 282 282 281 281 280 280 279 279 278 278 278 278 278 278 278 278 278 278 278 278 278 278 277 277 277 277 277 278 278 277 277 277 277 276 276
287 287 287 287 287 287 287 287 287 287 287 287 287 287 287 287 287 287 287 286 285 285 284 284 284 283 283 282 282 281 281 280 280 279 279 279 278 278 278 278 278 278 277 278 278 278 278 278 278 278 278 278 278 278 278 278 277 277 277 277 276 276 276
287 287 287 287 287 287 287 287 287 287 287 287 287 287 287 288 287 287 287 286 285 285 284 284 284 283 282 282 281 281 280 280 280 279 279 279 278 278 278 278 278 278 278 278 278 278 278 278 278 278 278 278 278 277 277 277 277 277 276 276 276 275 275
287 287 287 287 287 287 287 287 286 286 287 287 287 287 287 288 288 288 287 286 285 285 284 284 283 283 282 281 281 280 280 280 280 279 279 278 278 278 278 278 278 278 278 278 278 278 278 278 278 278 278 277 277 277 277 277 276 276 275 275 275 275 275
287 287 287 287 287 287 286 286 286 286 287 287 287 287 287 288 288 288 287 286 285 285 284 284 283 282 281 280 280 280 280 279 279 279 279 278 278 278 278 278 278 278 278 277 277 277 278 278 277 277 277 277 277 276 276 276 275 275 275 274 274 274 274
287 287 286 286 286 286 286 286 286 287 287 287 287 287 288 288 288 288 287 286 285 284 284 283 283 282 281 280 280 279 279 279 279 279 279 278 278 278 278 278 278 278 277 277 277 277 277 277 277 277 277 276 276 275 275 274 274 274 274 273 273 273 273
286 286 286 286 286 286 286 286 286 287 287 287 287 287 288 288 288 287 287 286 284 284 283 283 282 281 280 279 279 279 279 279 279 279 278 278 278 278 277 278 278 277 277 277 276 276 276 276 276 276 276 276 275 274 274 274 273 273 272 272 272 272 272
286 286 286 286 286 286 286 286 287 287 287 287 287 288 288 287 287 286 285 284 283 282 282 282 281 280 280 279 279 279 279 279 278 278 278 278 277 277 277 277 277 277 277 277 276 276 276 275 276 276 275 275 274 274 274 273 272 272 272 272 272 272 272
286 287 286 286 286 286 287 287 287 287 287 287 287 287 287 286 285 283 282 282 282 281 281 281 280 280 279 278 278 279 279 279 278 278 278 277 277 277 277 276 276 277 277 277 277 276 276 275 276 275 275 274 274 274 273 273 272 272 271 271 271 271 271
287 287 287 287 287 287 287 287 287 287 287 287 287 287 286 285 283 282 281 281 280 280 280 280 280 279 279 278 278 279 280 279 278 278 278 277 277 277 276 276 276 277 277 277 277 276 275 275 275 275 274 274 274 273 273 272 272 271 270 269 269 269 269
287 287 287 287 287 287 287 287 287 287 286 286 286 286 286 284 282 281 281 280 280 279 279 279 279 279 279 278 278 279 280 280 278 277 277 277 277 277 276 276 276 276 277 276 276 275 275 274 274 274 273 273 273 272 272 271 271 270 269 268 268 268 268
287 287 287 287 287 287 286 286 286 285 285 285 284 285 285 283 282 281 280 280 279 279 278 278 279 279 279 278 278 279 280 280 279 277 277 277 277 276 276 276 276 276 276 275 275 274 274 273 273 272 272 272 271 271 270 270 270 269 269 268 267 266 267
287 287 287 287 286 286 285 284 284 283 283 283 283 284 284 282 281 281 280 279 279 279 278 278 278 278 278 278 279 279 280 280 279 278 277 277 277 277 276 276 275 275 274 274 273 273 272 272 271 271 270 270 270 269 269 269 269 269 269 268 267 267 266
287 287 287 286 285 285 284 283 282 282 282 282 282 283 283 282 282 281 280 279 279 278 278 278 278 278 278 279 279 279 280 280 279 278 277 277 277 277 276 275 275 274 273 273 273 272 272 271 270 270 269 268 268 269 269 269 269 269 269 268 268 268 267
287 287 286 285 284 284 283 282 281 281 281 281 282 283 283 283 282 281 280 279 279 279 278 278 278 278 278 279 279 279 280 280 279 277 277 277 277 276 275 274 274 273 273 272 272 271 271 271 269 269 268 268 268 269 269 269 269 269 269 269 269 268 268
286 286 285 284 284 283 283 282 281 281 281 281 282 283 283 283 282 281 280 280 279 279 278 278 278 278 279 279 279 279 280 279 278 277 277 277 277 275 274 274 273 272 272 272 271 271 271 270 269 268 268 268 268 269 269 269 269 269 269 269 269 269 269
285 285 284 284 284 283 282 281 281 281 281 281 282 283 283 283 282 281 280 280 279 279 278 278 278 279 279 279 279 279 279 278 277 277 277 277 276 275 274 273 272 272 271 271 271 270 270 269 268 268 269 268 268 269 269 269 269 269 268 268 267 267 268
284 284 284 284 284 283 282 281 281 281 281 281 282 283 283 282 281 281 280 279 279 278 278 279 279 279 279 279 279 279 279 278 277 277 276 275 274 274 273 272 272 272 271 271 270 269 269 269 268 269 269 268 269 269 269 269 269 268 267 266 265 266 267
283 283 283 283 283 283 282 282 281 281 281 281 282 282 282 282 281 280 279 279 278 278 279 279 279 279 278 278 277 277 277 276 276 275 274 274 273 273 272 272 271 271 270 269 269 269 268 268 268 268 268 269 269 268 268 268 268 267 266 266 265 266 267
282 282 282 282 282 283 283 282 282 281 280 281 281 282 282 281 280 279 279 278 278 278 278 278 277 277 276 275 275 274 274 273 273 272 272 272 272 272 272 271 271 270 269 268 268 268 268 268 268 268 268 268 268 267 267 268 268 267 266 266 266 266 267
280 280 280 280 281 282 282 282 281 280 280 280 281 282 282 281 280 279 279 279 278 278 277 276 275 275 275 274 274 273 271 271 271 271 270 270 271 271 271 270 269 268 268 268 268 268 268 268 268 268 268 268 267 267 267 267 267 266 266 266 266 266 267
279 279 279 279 279 280 281 281 280 280 280 280 281 282 282 281 280 280 279 278 278 277 276 275 274 274 274 274 273 272 271 271 271 270 270 269 269 270 270 269 268 268 268 268 268 268 269 268 268 268 268 268 267 267 267 266 266 266 266 266 266 266 266
278 278 278 278 279 280 281 281 280 280 280 280 281 282 282 281 280 280 279 278 278 276 275 274 274 274 274 273 273 272 271 271 270 270 269 269 268 268 268 267 267 268 268 268 268 268 268 268 268 268 268 268 268 267 267 266 266 266 266 266 266 266 266
278 278 279 279 280 281 281 281 280 280 281 281 281 282 282 281 281 280 279 278 277 276 275 275 274 274 274 273 273 272 271 271 270 270 269 269 268 267 267 267 267 268 268 268 268 268 268 268 268 268 268 268 267 267 266 266 266 266 266 266 266 266 265
278 279 280 281 281 281 281 281 281 281 281 281 281 282 282 281 281 280 279 278 277 276 275 275 274 274 274 273 273 272 272 271 270 270 269 268 268 267 267 267 267 267 268 267 267 267 268 268 268 268 268 267 266 266 266 266 266 265 265 265 265 265 265
278 279 281 281 281 281 281 281 281 281 281 281 281 282 282 281 280 279 278 277 276 276 276 275 274 274 274 273 273 272 271 271 270 270 269 268 267 267 267 267 267 267 267 267 267 267 268 268 268 268 268 267 267 267 266 266 265 265 264 264 264 264 264
278 279 281 281 281 281 281 281 281 281 281 281 282 282 281 280 278 277 276 276 276 276 276 275 275 274 274 273 272 272 271 271 270 269 269 268 267 267 267 267 267 267 267 267 267 267 268 268 268 268 268 267 267 266 266 265 265 264 264 264 264 263 263
Wind_Speed
22 23 22 22 22 22 21 21 20 20 18 19 21 22 21 21 21 22 23 22 22 23 23 25 26 26 26 26 23 24 29 32 31 32 32 31 31 29 28 27 20 9 5 8 13 17 17 19 21 20 19 17 15 14 15 16 17 16 17 17 18 18 18
22 23 22 21 21 22 22 21 20 20 19 19 20 21 22 22 22 23 24 23 23 24 24 25 26 26 26 26 26 25 27 31 31 31 31 30 31 29 28 28 24 14 9 7 10 15 17 19 20 18 18 18 16 15 14 15 15 15 16 17 17 17 17
22 22 21 20 21 21 21 21 20 20 20 20 20 20 20 21 22 23 24 24 25 25 24 25 26 27 26 25 26 25 27 31 32 31 32 30 30 30 27 28 26 20 14 10 10 15 18 18 19 18 17 17 16 14 14 14 14 14 15 16 16 17 18
22 22 21 21 21 20 21 21 20 20 20 21 21 21 20 20 21 22 24 25 25 26 25 25 25 26 26 25 25 25 27 32 32 32 32 30 28 29 28 27 27 25 20 14 11 14 17 18 18 18 16 15 14 13 14 13 13 14 15 16 17 17 18
22 21 21 21 20 20 20 20 20 20 21 21 21 22 21 21 20 21 22 24 25 26 26 26 26 26 25 25 26 25 27 31 32 31 32 31 28 28 28 26 26 26 21 16 13 13 14 16 16 15 15 15 14 12 12 13 14 15 15 15 16 16 17
22 21 21 21 20 20 20 20 20 21 21 21 22 22 22 22 21 21 22 23 25 26 27 27 28 27 26 26 28 29 29 31 32 31 31 32 29 28 27 25 24 24 20 16 15 14 13 14 14 13 13 15 15 12 11 11 12 14 14 14 14 15 15
23 22 22 22 21 21 21 21 21 22 21 22 22 22 22 22 21 21 22 23 25 27 28 29 30 29 28 29 32 33 32 31 33 32 31 32 30 29 27 24 22 23 21 16 15 15 14 13 14 14 13 14 15 13 12 11 11 11 12 12 13 13 13
23 22 22 22 22 21 22 21 22 22 22 22 22 22 22 21 21 21 22 24 26 27 28 30 31 30 31 32 34 34 34 34 34 32 30 31 32 30 28 26 24 22 20 17 15 15 15 14 14 14 12 11 13 13 13 13 12 11 10 10 11 12 11
22 22 23 23 22 22 21 21 22 22 22 22 22 22 23 22 22 23 24 25 26 27 28 30 31 31 31 33 34 34 34 35 36 35 32 32 33 31 29 29 25 21 18 18 16 15 16 14 13 14 13 12 14 14 13 12 12 11 10 10 11 11 11
22 23 22 21 21 21 20 20 22 23 23 22 22 23 23 24 27 27 26 26 25 25 27 30 31 32 31 32 34 35 35 36 37 37 36 35 36 34 32 30 26 21 20 18 16 16 16 13 12 15 15 15 15 15 13 12 11 10 9 9 10 11 11
23 24 22 20 20 20 20 21 22 22 22 22 24 25 25 26 28 28 27 26 26 27 28 29 31 31 30 30 33 34 36 37 37 37 36 36 37 38 36 33 28 24 22 20 17 17 17 14 13 16 17 16 15 15 14 12 10 9 9 8 8 8 9
23 24 22 21 21 21 21 22 22 22 21 23 25 26 27 28 29 27 27 27 29 31 31 30 29 29 29 30 32 33 33 35 36 36 36 36 37 38 37 36 34 30 27 23 20 18 19 17 16 17 18 17 16 15 12 11 10 10 9 9 9 9 10
23 23 21 20 20 21 22 23 23 23 23 25 27 27 28 29 30 29 28 29 30 31 30 29 28 27 28 29 30 32 32 32 32 32 32 32 33 34 33 31 31 30 30 28 24 20 19 19 18 17 18 17 15 13 12 12 12 11 10 11 12 12 13
20 19 19 19 19 20 21 23 24 24 25 27 28 29 29 29 30 30 29 29 31 30 29 29 28 27 27 27 28 30 31 32 31 30 29 29 29 30 30 28 27 26 27 28 26 21 19 20 20 17 16 17 16 15 14 13 12 11 12 13 13 14 16
17 17 18 19 19 20 22 23 23 23 25 28 29 28 28 28 29 30 28 27 29 30 29 28 27 27 28 28 29 30 31 32 31 30 29 29 29 29 29 29 29 27 26 27 26 22 19 19 20 18 17 17 17 15 15 13 12 12 12 12 14 16 20
17 17 18 19 20 21 23 25 24 25 28 29 28 26 26 26 26 26 25 25 27 27 27 27 27 27 28 28 29 30 30 31 31 29 29 29 28 28 28 29 28 27 25 25 25 23 20 19 20 19 18 17 15 15 15 14 12 12 10 10 12 14 18
17 18 18 20 21 23 25 26 26 27 28 28 26 25 24 23 21 21 21 22 22 23 24 25 27 28 27 28 29 29 29 30 31 30 29 29 28 26 26 26 26 24 23 21 20 20 19 18 17 16 15 14 15 16 16 14 11 10 10 10 9 9 12
17 18 20 21 23 24 26 27 28 28 29 28 25 23 22 19 16 15 16 17 19 21 22 24 28 30 29 29 30 30 28 30 32 31 30 30 29 25 23 25 26 24 23 21 18 17 17 17 17 17 17 16 15 16 15 15 14 12 11 11 9 9 11
17 18 20 22 23 25 26 28 29 28 26 25 22 21 21 18 14 14 15 17 17 17 18 21 25 28 31 31 30 29 29 29 32 32 30 30 30 25 22 26 29 27 25 24 22 20 21 21 20 19 18 16 15 15 15 16 17 16 14 14 13 11 9
17 18 20 21 22 23 23 23 23 22 20 19 18 18 19 17 14 15 16 17 18 16 15 17 20 23 27 29 29 28 28 29 31 32 31 31 33 28 26 29 30 28 27 26 24 24 22 20 18 16 15 15 15 16 18 18 19 19 18 17 16 13 9
18 18 20 21 20 19 18 18 17 17 16 16 16 17 17 15 16 18 19 19 16 15 15 16 18 21 23 25 26 26 27 28 30 33 33 33 32 29 27 29 30 28 26 24 22 21 18 15 14 14 14 15 15 16 17 17 17 18 17 17 17 14 13
19 17 16 16 17 16 15 14 13 13 13 13 13 15 14 16 18 21 23 19 14 13 15 16 19 22 23 24 24 24 26 27 29 30 31 29 26 23 23 26 28 26 23 22 20 17 14 12 12 12 12 13 13 13 13 13 14 14 14 15 16 16 17
15 13 11 11 13 15 13 10 9 10 11 10 10 11 12 17 19 21 25 23 17 15 14 14 18 21 21 22 23 22 24 27 28 27 26 25 23 21 22 25 26 24 21 20 17 14 12 11 11 10 10 10 10 10 10 9 9 10 10 11 13 15 18
12 11 9 10 12 12 10 7 7 8 8 7 7 7 12 18 19 21 25 25 22 19 17 16 18 20 20 21 22 21 23 26 27 26 24 24 23 22 22 25 25 22 19 17 15 12 11 11 11 11 10 9 8 7 6 5 5 6 7 8 10 12 14
10 10 10 11 12 11 8 4 5 5 5 5 5 5 13 19 19 21 25 24 22 22 21 20 20 20 21 21 21 20 22 25 26 24 23 24 24 23 23 24 22 19 17 15 13 12 11 11 11 11 10 8 7 5 3 2 3 4 5 6 9 11 12
9 10 11 11 11 10 7 3 3 3 2 2 3 5 16 20 19 20 23 22 22 22 20 19 20 21 21 21 21 21 23 25 25 24 23 25 25 24 23 22 20 19 16 13 12 12 11 11 11 9 7 6 4 3 1 1 2 3 4 6 8 11 13
10 10 10 11 11 10 7 3 3 2 2 1 1 7 17 20 18 18 18 17 17 18 17 19 20 21 21 21 19 20 23 26 26 25 26 25 24 23 21 19 19 18 14 12 12 13 12 11 9 7 6 5 4 3 2 2 3 3 3 4 6 8 10
10 9 10 11 11 10 8 5 4 4 4 3 3 8 16 18 17 17 17 17 18 18 18 20 20 20 20 20 21 22 25 27 27 27 26 25 23 22 20 18 17 16 14 12 13 13 12 11 9 8 7 6 5 4 3 3 4 4 4 4 4 6 9
11 9 9 11 11 10 9 6 3 4 6 5 5 9 16 18 18 18 18 20 21 21 19 18 19 20 21 21 23 24 24 24 25 24 23 23 23 22 20 17 15 14 12 12 12 12 12 11 10 9 8 7 6 4 2 3 4 4 4 5 4 6 8
12 10 10 11 11 11 9 6 3 2 6 7 7 10 16 19 20 20 20 22 24 24 22 21 19 19 20 20 20 20 21 24 25 22 21 21 21 20 18 15 13 12 12 13 13 13 13 12 10 9 8 7 6 4 2 3 4 5 5 5 5 6 8
13 12 11 11 11 10 8 4 3 2 6 9 9 12 17 19 21 22 23 26 28 26 23 21 18 16 18 20 20 18 21 24 26 23 22 20 18 16 16 14 13 13 14 15 15 14 13 13 11 9 9 8 7 6 4 2 3 5 5 5 5 6 8
15 13 11 10 9 8 4 3 2 2 7 10 10 14 19 20 22 25 25 27 28 23 19 18 17 14 16 19 17 17 20 24 24 23 23 21 17 15 14 13 14 15 15 16 15 14 13 13 11 10 10 8 7 7 5 2 3 4 5 6 6 6 9
15 14 13 11 7 5 2 2 3 4 8 11 12 15 20 22 25 26 25 27 28 22 15 15 16 13 14 16 16 17 20 21 21 22 22 20 18 16 14 14 15 16 17 16 15 14 14 13 12 11 10 8 7 6 5 4 4 5 6 6 6 7 9
17 15 15 12 8 7 5 2 3 5 9 12 13 16 21 24 26 25 23 25 28 23 16 14 14 13 13 16 19 20 21 20 20 20 19 17 16 17 17 17 17 17 17 16 15 14 14 13 11 11 9 7 6 5 5 5 5 5 6 6 7 8 10
18 18 15 11 9 9 6 3 3 5 9 12 13 18 23 24 20 17 16 20 25 24 19 17 16 15 17 19 21 22 21 20 20 19 17 17 17 18 20 19 18 18 17 16 15 14 13 12 11 10 9 8 7 7 6 5 5 5 6 7 7 8 10
15 16 14 12 11 10 7 5 4 6 9 11 14 19 23 19 13 12 14 16 19 21 21 20 20 20 20 21 22 21 20 21 20 19 18 18 19 21 22 21 19 19 18 16 15 14 13 12 11 9 8 8 7 7 6 5 5 5 5 6 7 8 10
Wind_Direction
271 269 265 261 257 255 252 250 247 244 240 236 236 237 232 228 227 228 231 232 229 228 225 224 225 223 219 216 209 206 209 210 209 209 207 204 201 198 197 195 191 189 168 153 167 171 172 184 192 195 197 198 202 206 215 226 231 232 233 236 241 245 248
270 269 267 263 258 255 253 251 248 245 243 240 237 235 232 228 225 225 229 230 228 228 227 225 225 224 221 217 213 211 209 207 206 204 202 202 200 196 194 193 190 183 176 165 159 166 174 183 189 194 199 202 206 209 213 223 227 229 232 235 237 241 244
266 266 265 264 262 259 257 255 251 248 247 248 245 237 232 229 224 223 227 228 228 229 227 225 224 224 221 216 215 215 210 207 205 202 200 199 199 196 193 192 192 186 184 181 168 170 177 184 191 198 201 204 209 212 215 222 227 230 235 238 240 243 246
266 264 264 262 262 261 259 258 256 251 249 251 250 246 241 236 229 226 229 230 230 229 228 225 224 224 223 218 216 215 209 205 203 200 198 196 195 195 192 189 190 191 188 184 183 185 185 186 193 199 202 204 209 215 219 224 230 235 240 243 244 246 249
263 261 260 260 260 259 258 257 256 253 251 250 249 248 247 244 239 234 233 234 233 231 229 227 227 228 226 220 215 212 208 204 201 198 197 194 191 191 190 187 188 190 186 182 188 192 186 183 186 191 197 201 204 213 224 231 236 240 242 244 245 248 251
259 259 260 260 260 259 256 256 255 255 253 251 250 249 247 246 245 241 238 238 238 236 233 231 233 233 229 221 215 212 208 203 200 197 195 193 189 187 186 184 183 183 180 181 191 194 187 181 182 184 190 200 208 213 222 233 240 241 241 241 244 248 251
257 260 262 263 262 260 257 255 253 252 251 251 250 249 246 245 245 243 242 243 244 242 237 234 235 234 229 223 218 214 209 202 198 196 195 193 189 186 184 178 173 174 175 179 190 196 194 189 189 194 195 203 212 217 222 229 237 242 240 238 242 246 248
256 259 262 264 263 260 257 254 251 250 249 249 249 248 247 245 243 244 246 247 248 246 241 237 235 233 229 226 222 217 211 205 198 193 192 193 190 185 181 175 169 168 171 179 188 195 199 195 191 193 194 197 206 214 221 224 227 237 241 240 243 247 250
257 258 261 263 261 258 257 254 252 252 251 249 249 250 248 245 243 245 247 247 247 246 242 239 236 234 231 227 223 219 213 208 202 195 191 190 188 185 181 175 169 165 169 179 187 193 198 197 192 189 190 197 206 214 220 219 220 231 241 249 256 258 260
257 258 260 262 263 261 259 256 255 255 253 249 249 250 248 246 245 246 246 245 244 241 240 238 235 234 233 227 223 218 213 210 206 201 197 193 190 187 182 175 171 170 174 178 183 190 193 193 194 192 192 199 207 213 217 216 218 231 244 258 268 271 271
260 261 262 264 265 263 262 261 260 258 253 250 250 248 246 245 246 245 245 244 239 236 239 239 234 232 230 225 219 215 212 209 206 202 201 198 194 193 189 183 178 176 178 181 184 189 192 191 192 194 196 200 204 206 209 211 218 230 241 254 265 275 278
264 262 261 261 263 264 264 264 263 260 256 254 253 251 247 247 247 245 242 239 236 237 240 240 233 227 224 220 215 211 207 205 203 201 201 200 198 198 198 194 189 186 185 185 186 188 193 193 191 193 197 199 200 201 202 206 216 225 234 247 255 260 268
267 262 258 258 260 262 263 263 263 261 259 258 256 254 252 251 251 250 243 236 235 236 236 235 231 222 217 214 210 206 203 200 198 197 197 197 198 199 198 196 194 193 191 191 189 188 192 192 189 191 197 199 199 197 194 198 210 222 236 250 255 257 264
268 262 259 260 260 261 260 261 262 260 258 258 258 258 257 255 255 254 247 240 237 235 232 230 225 216 210 206 202 199 199 196 194 192 191 191 194 195 194 192 192 194 195 195 194 192 191 192 193 194 196 197 193 189 190 197 210 227 243 251 254 257 262
272 268 268 267 266 265 264 262 262 259 257 259 262 263 262 260 258 255 251 244 237 233 229 225 220 211 204 200 196 195 195 193 191 189 187 187 190 191 191 192 192 193 195 197 199 196 190 191 196 196 193 193 192 195 202 209 219 233 245 252 258 262 264
275 273 271 270 267 266 264 264 262 258 259 263 266 267 264 261 258 255 252 245 235 228 224 219 212 205 199 196 194 192 191 189 188 186 183 183 184 185 186 190 192 192 194 196 199 198 196 199 204 203 202 202 201 206 213 216 224 237 244 249 260 263 261
275 272 269 267 265 263 263 265 263 260 264 269 269 265 262 259 254 247 242 235 223 215 213 210 205 200 194 193 192 189 185 185 185 184 182 179 178 178 181 186 188 189 191 192 191 193 199 206 206 202 199 200 204 212 217 217 221 231 233 237 248 255 257
272 267 265 263 261 261 262 265 267 267 271 273 267 259 256 251 238 225 218 210 203 201 201 201 201 198 192 190 190 188 185 184 183 182 181 177 172 171 175 181 183 183 185 186 184 183 187 191 191 188 188 193 205 216 221 222 225 228 228 234 245 256 267
273 267 265 264 263 263 264 266 270 270 270 268 262 253 250 239 213 196 192 186 184 187 191 194 196 195 193 193 191 187 187 186 182 181 180 175 171 169 172 176 177 176 177 178 176 173 174 177 183 188 193 203 216 224 230 235 240 241 239 242 250 255 265
276 270 269 269 269 271 271 270 271 271 268 264 258 252 245 226 193 176 176 174 171 170 172 180 187 189 192 194 191 188 189 186 181 180 180 178 176 175 172 171 171 170 169 169 169 170 173 179 188 198 209 222 231 236 242 247 251 254 251 246 247 247 243
275 274 275 278 280 280 279 275 273 273 271 265 259 253 240 210 182 175 174 170 167 166 164 167 176 183 188 191 189 190 191 187 181 181 183 182 181 177 170 168 168 168 168 168 170 175 182 192 206 217 226 234 238 241 247 250 254 257 255 247 245 242 239
278 280 281 285 288 286 282 277 275 276 273 264 259 256 233 197 183 183 177 165 157 162 165 167 175 181 186 189 190 191 192 188 181 181 182 181 176 168 164 167 168 166 168 171 173 179 185 194 208 219 227 234 238 241 246 249 252 257 257 256 254 248 244
288 291 288 289 291 287 282 281 278 277 273 264 264 259 222 193 187 187 180 171 165 163 161 164 174 179 184 187 188 189 193 189 179 175 178 177 168 159 158 163 164 161 163 167 168 170 176 185 199 206 210 218 228 236 244 247 254 263 267 269 267 261 258
305 307 299 297 297 290 282 278 278 282 279 266 268 254 204 186 184 185 182 177 172 168 165 166 172 176 179 181 183 187 192 183 172 171 177 173 163 156 157 162 162 159 158 158 159 164 173 181 189 190 191 202 216 230 245 253 265 277 281 279 280 279 277
317 313 299 296 298 294 287 272 266 284 285 267 268 230 185 175 176 182 183 178 174 174 174 172 170 171 173 175 178 183 181 170 164 168 172 165 158 156 158 159 157 153 152 154 159 168 171 173 181 187 192 202 211 220 244 273 297 301 303 305 304 305 307
317 307 295 293 296 296 295 273 251 270 276 261 267 191 173 170 174 181 182 181 180 178 174 167 162 163 167 169 173 176 168 157 156 160 159 155 154 156 156 155 154 153 155 158 161 162 160 164 178 187 187 189 188 181 184 351 350 331 324 326 319 315 321
311 305 298 296 299 299 297 277 241 226 188 193 207 164 165 167 169 168 167 167 166 161 157 156 155 157 162 164 166 165 156 149 149 149 146 146 150 153 153 155 158 159 156 154 155 155 156 163 170 167 158 157 151 132 96 40 28 16 348 331 317 312 323
309 304 303 303 304 303 298 279 240 206 184 174 154 155 158 157 153 151 152 151 146 143 148 153 151 150 150 146 139 134 134 136 139 140 140 143 148 153 154 156 159 159 155 154 154 155 158 159 154 147 142 134 121 108 81 47 41 26 5 351 336 324 327
308 307 312 309 302 298 297 293 272 219 190 173 159 156 155 151 150 152 152 149 145 140 137 136 134 133 132 128 124 123 126 130 132 133 137 144 150 155 157 157 157 157 157 157 155 152 152 149 142 137 132 119 116 116 80 54 51 31 15 12 354 327 324
316 313 311 304 295 294 297 303 310 255 188 171 163 159 155 155 157 154 146 144 143 137 128 123 123 127 131 132 131 129 129 133 134 134 137 143 149 155 155 151 152 156 158 158 155 152 150 145 137 131 127 122 127 134 107 53 41 31 23 17 355 330 331
332 323 310 297 293 297 292 273 285 264 184 170 164 158 155 156 155 147 142 145 145 134 126 127 129 132 138 139 135 133 135 139 141 141 141 142 146 152 153 151 153 158 161 159 155 152 148 143 137 134 132 131 129 124 118 82 37 30 21 8 349 330 330
339 334 329 318 305 306 295 207 209 206 174 169 165 158 154 153 149 144 144 148 144 131 124 132 134 133 139 138 133 136 143 146 147 147 147 147 146 147 150 155 159 161 161 158 154 151 147 144 141 138 133 127 121 117 116 101 55 35 20 8 355 341 334
348 346 349 349 344 354 35 156 184 179 167 164 162 158 155 152 148 146 147 148 142 130 126 136 137 137 141 139 136 141 147 150 152 152 152 151 149 147 152 161 164 164 162 158 154 153 150 147 145 139 131 124 118 116 106 82 57 34 20 11 356 343 339
2 3 4 9 23 37 44 93 152 157 158 157 159 159 155 150 147 147 151 152 145 137 133 139 140 140 143 145 148 152 152 152 153 152 150 148 149 154 161 164 165 165 163 159 156 154 152 149 145 140 137 132 120 108 91 69 51 33 19 13 360 345 339
358 6 16 28 38 34 32 58 111 140 148 149 155 156 150 144 139 137 142 149 148 146 147 148 147 148 152 155 157 157 156 155 155 153 152 152 156 162 165 164 164 167 166 162 158 156 151 148 146 144 140 131 115 101 92 74 51 37 21 8 357 343 336
349 3 22 40 40 32 35 60 91 124 140 147 155 152 143 133 121 119 131 143 149 152 154 155 155 157 160 160 160 160 160 160 159 158 158 161 166 168 166 164 166 170 168 163 159 157 153 150 150 147 137 122 103 88 84 69 43 34 21 2 350 341 336